{"data":{"norad_id":65153,"intl_designator":"2025-171X","name":"KUIPER-00116","alt_names":[],"object_type":"PAYLOAD","status":"ACTIVE","operator":null,"country":"US","launch_date":"2025-08-11","launch_site_code":"AFETR","launch_vehicle":null,"mission":null,"orbit_class":"UNKNOWN","rcs_meters":null,"size_class":null,"mass_kg":null,"dimensions":null,"purposes":[],"wikipedia_slug":null,"has_3d_model":false,"image_url":null,"decayed_at":null,"tle_current":{"epoch":"2026-09-21T12:45:24.262848Z","epoch_age_seconds":75825,"freshness":"FRESH","line1":"1 65153U 25171X   26264.53153082  .00000219  00000+0  57733-4 0  9993","line2":"2 65153  51.9012  27.1178 0000476 104.2052 255.8963 14.79934164 61673","mean_motion":14.79934164,"eccentricity":4.76e-5,"inclination_deg":51.9012,"raan_deg":27.1178,"arg_perigee_deg":104.2052,"mean_anomaly_deg":255.8963,"bstar":5.7733e-5,"rev_number":6167,"period_min":97.301625641774,"perigee_km":629.1983896756,"apogee_km":629.86551976009,"semimajor_km":7007.6689547178,"source":"CELESTRAK","updated_at":"2026-09-22T09:00:30.157809Z"}}}